User: anonymous   Login
Location: Unspecified
(0.0000°N, 0.0000°E)
Time: 11:55:16
(UTC+00:00)
Language:

UNK - Orbit

View from above orbital plane
View from above orbital plane
View from above satellite
View from above satellite

Ground track
Ground track

The orbit data is extracted from the following two-line orbital elements,

1 27942U 03042D   18293.56704853  .00000083  00000-0  18046-4 0  9998
2 27942  97.8139  95.3130 0060789 283.5630  75.8815 14.79223887808776
Epoch (UTC): 20 October 2018 13:36:32
Eccentricity: 0.0060789
inclination: 97.8139°
perigee height: 589 km
apogee height: 674 km
right ascension of ascending node: 95.3130°
argument of perigee: 283.5630°
revolutions per day: 14.79223887
mean anomaly at epoch: 75.8815°
orbit number at epoch: 80877

The dashed part of the orbit path shows where the satellite is in the earth's shadow,  

DLR